Krakow, Poland

6:27 PM CEST on September 27, 2016 (GMT +0200)
Krakow

Weather History for 12566 - August, 2013

Change the Weather History Date:

Sunday, August 18, 2013

  Actual Average Record
Temperature  
Mean Temperature 70 °F -  
Max Temperature 87 °F - - ()
Min Temperature 54 °F - - ()
Cooling Degree Days 6    
Growing Degree Days 20 (Base 50)    
Moisture  
Dew Point 53 °F    
Average Humidity 60    
Maximum Humidity 95    
Minimum Humidity 16    
Precipitation  
Precipitation 0.00 in - - ()
Sea Level Pressure  
Sea Level Pressure 30.02 in    
Wind  
Wind Speed 2 mph ()    
Max Wind Speed 9 mph    
Max Gust Speed -    
Visibility 10.0 miles    
Events      
T = Trace of Precipitation, MM = Missing Value Source: Averaged Metar Reports

Daily Weather History Graph

Daily Weather History Graph

Search for Another Location

Airport or City:

Trip Planner

Search our weather history database for the weather conditions in past years. The results will help you decide how hot, cold, wet, or windy it might be!

Date:

Astronomy

Aug. 18, 2013 Rise Set
Actual Time 5:34 AM CEST 7:53 PM CEST
Civil Twilight 4:59 AM CEST 8:28 PM CEST
Nautical Twilight 4:14 AM CEST 9:13 PM CEST
Astronomical Twilight 3:22 AM CEST 10:04 PM CEST
Moon 5:51 PM CEST (8/18) 2:13 AM CEST (8/18)
Length of Visible Light 15h 29m
Length of Day
14h 18m
Waxing Gibbous, 90% of the Moon is Illuminated
Aug 18
Waxing Gibbous
Aug 21
Full
Aug 28
Last Quarter
Sep 5
New
Sep 12
First Quarter

Hourly Weather History & Observations

Time (CEST) Temp. Heat Index Dew Point Humidity Pressure Visibility Wind Dir Wind Speed Gust Speed Precip Events Conditions
12:00 AM 60.8 °F - 53.6 °F 77% 30.04 in - Calm Calm - N/A   Clear
12:30 AM 59.0 °F - 53.6 °F 82% 30.04 in - Calm Calm - N/A   Clear
1:00 AM 57.2 °F - 55.4 °F 94% 30.04 in - ENE 2.3 mph - N/A   Clear
1:30 AM 57.2 °F - 53.6 °F 88% 30.04 in - Calm Calm - N/A   Clear
2:00 AM 57 °F - 54 °F 86% 30.05 in 9 mi WSW 2.2 mph - -  
2:00 AM 55.4 °F - 53.6 °F 94% 30.04 in - Calm Calm - N/A   Clear
2:30 AM 57.2 °F - 53.6 °F 88% 30.04 in - Calm Calm - N/A   Clear
3:00 AM 55.4 °F - 53.6 °F 94% 30.04 in - Calm Calm - N/A   Clear
3:30 AM 53.6 °F - 51.8 °F 94% 30.04 in - Calm Calm - N/A   Clear
4:00 AM 53.6 °F - 51.8 °F 94% 30.04 in - Calm Calm - N/A   Clear
4:30 AM 53.6 °F - 51.8 °F 94% 30.04 in - Calm Calm - N/A   Clear
5:00 AM 54 °F - 53 °F 95% 30.06 in 9 mi Calm Calm - -  
5:00 AM 53.6 °F - 51.8 °F 94% 30.04 in - Calm Calm - N/A   Clear
5:30 AM 53.6 °F - 51.8 °F 94% 30.04 in - Calm Calm - N/A   Clear
6:00 AM 53.6 °F - 51.8 °F 94% 30.04 in - Calm Calm - N/A   Clear
6:30 AM 53.6 °F - 51.8 °F 94% 30.04 in - Calm Calm - N/A   Clear
7:00 AM 57.2 °F - 53.6 °F 88% 30.04 in - Calm Calm - N/A   Clear
7:30 AM 59.0 °F - 57.2 °F 94% 30.04 in - Calm Calm - N/A   Clear
8:00 AM 64 °F - 55 °F 64% 30.06 in 12 mi WSW 2.2 mph - -   Clear
8:00 AM 62.6 °F - 55.4 °F 77% 30.04 in - Calm Calm - N/A   Clear
8:30 AM 66.2 °F - 55.4 °F 68% 30.04 in - Calm Calm - N/A   Clear
9:00 AM 69.8 °F - 53.6 °F 56% 30.04 in - Variable 1.2 mph - N/A   Clear
9:30 AM 71.6 °F - 57.2 °F 60% 30.06 in - SW 3.5 mph - N/A   Clear
10:00 AM 75.2 °F - 57.2 °F 53% 30.06 in - Variable 2.3 mph - N/A   Clear
10:30 AM 78.8 °F - 57.2 °F 47% 30.04 in - Variable 2.3 mph - N/A   Clear
11:00 AM 80 °F - 51 °F 26% 30.03 in 19 mi SW 6.7 mph - -   Clear
11:00 AM 80.6 °F - 51.8 °F 37% 30.04 in - SW 5.8 mph - N/A   Clear
11:30 AM 80.6 °F 80.3 °F 53.6 °F 39% 30.04 in - SW 5.8 mph - N/A   Clear
12:00 PM 82.4 °F - 48.2 °F 30% 30.04 in - Variable 5.8 mph - N/A   Clear
12:30 PM 82.4 °F - 50.0 °F 32% 30.04 in - SW 5.8 mph - N/A   Clear
1:00 PM 84.2 °F - 48.2 °F 29% 30.04 in - WSW 6.9 mph - N/A   Clear
1:30 PM 86.0 °F - 46.4 °F 25% 30.04 in - Variable 4.6 mph - N/A   Clear
2:00 PM 86 °F - 48 °F 17% 29.99 in 19 mi WSW 4.5 mph - -   Scattered Clouds
2:00 PM 86.0 °F - 46.4 °F 25% 30.01 in - Variable 3.5 mph - N/A   Clear
2:30 PM 86.0 °F - 44.6 °F 23% 30.01 in - West 6.9 mph - N/A   Clear
3:00 PM 86.0 °F - 46.4 °F 25% 30.01 in 6.2 mi WSW 6.9 mph - N/A   Partly Cloudy
3:30 PM 86.0 °F - 48.2 °F 27% 30.01 in 6.2 mi West 8.1 mph - N/A   Partly Cloudy
4:00 PM 86.0 °F - 50.0 °F 29% 30.01 in 6.2 mi West 9.2 mph - N/A   Partly Cloudy
4:30 PM 86.0 °F - 48.2 °F 27% 30.01 in 6.2 mi WSW 5.8 mph - N/A   Partly Cloudy
5:00 PM 87 °F - 48 °F 16% 29.96 in 25 mi West 6.7 mph - -   Scattered Clouds
5:00 PM 86.0 °F - 50.0 °F 29% 29.98 in 6.2 mi West 6.9 mph - N/A   Partly Cloudy
5:30 PM 87.8 °F - 50.0 °F 27% 29.98 in 6.2 mi WSW 4.6 mph - N/A   Partly Cloudy
6:00 PM 86.0 °F - 51.8 °F 31% 29.98 in 6.2 mi West 3.5 mph - N/A   Partly Cloudy
6:30 PM 86.0 °F 84.2 °F 53.6 °F 33% 29.98 in - West 2.3 mph - N/A   Clear
7:00 PM 80.6 °F 81.5 °F 60.8 °F 51% 29.98 in - South 2.3 mph - N/A   Clear
7:30 PM 78.8 °F - 57.2 °F 47% 30.01 in - Calm Calm - N/A   Clear
8:00 PM 75 °F - 59 °F 47% 29.98 in 31 mi Calm Calm - -   Scattered Clouds
8:00 PM 73.4 °F - 59.0 °F 61% 30.01 in - Calm Calm - N/A   Clear
8:30 PM 71.6 °F - 59.0 °F 64% 30.01 in - Calm Calm - N/A   Clear
9:00 PM 69.8 °F - 59.0 °F 68% 30.01 in - Calm Calm - N/A   Clear
9:30 PM 68.0 °F - 57.2 °F 68% 30.01 in - Calm Calm - N/A   Clear
10:00 PM 66.2 °F - 57.2 °F 73% 30.01 in - Calm Calm - N/A   Clear
10:30 PM 66.2 °F - 57.2 °F 73% 30.01 in - Calm Calm - N/A   Clear
11:00 PM 65 °F - 56 °F 64% 30.00 in 19 mi Calm Calm - -  
11:00 PM 64.4 °F - 57.2 °F 77% 30.01 in - Calm Calm - N/A   Clear
11:30 PM 64.4 °F - 57.2 °F 77% 30.01 in - Calm Calm - N/A   Clear